Regional Weather Roundup
Issued by NWS Green Bay, WI

Home | Current Version | Previous Version | Graphics & Text | Print | Product List | Glossary Off
Versions: 1 2 3 4 5 6 7 8 9 10 11 12 13 14 15 16 17 18 19 20 21 22 23 24 25 26 27 28 29 30 31 32 33 34 35 36 37 38 39 40 41 42 43 44 45 46 47 48 49 50

000
ASUS43 KGRB 121611
RWRGRB

NORTH-CENTRAL AND NORTHEAST WISCONSIN REGIONAL WEATHER ROUNDUP
NATIONAL WEATHER SERVICE GREEN BAY WI
1000 AM CST TUE DEC 12 2017

WIZ005-009-010>012-018-019-121700-
NORTH CENTRAL WISCONSIN

CITY           SKY/WX    TMP DP  RH WIND       PRES   REMARKS
IRONWOOD       LGT SNOW   7   3  84 W9        30.05S VSB 1   WCI  -7
MANITOWISH WTR CLOUDY     6   2  80 NW10      30.00S HAZE    WCI  -8
ARBOR VITAE    CLOUDY     9   3  77 NW10      30.00S WCI  -5
EAGLE RIVER    CLOUDY    10   1  69 NW14      29.98R WCI  -7
LAND O LAKES   LGT SNOW  10   5  78 NW8       29.98S WCI  -1
RHINELANDER    CLOUDY     8   2  76 NW8       30.00S WCI  -4
PHILLIPS       CLOUDY     4  -1  77 NW9       30.05F WCI -10
ANTIGO         CLOUDY    10   3  73 NW14      30.00S WCI  -6
TOMAHAWK       MOSUNNY    8   1  70 NW9       30.04S WCI  -5
MERRILL        MOSUNNY   10   0  64 NW10      30.05F WCI  -4
$$

WIZ013-073-121700-
NORTHEAST WISCONSIN

CITY           SKY/WX    TMP DP  RH WIND       PRES   REMARKS
IRON MOUNTAIN  CLOUDY    11   4  73 NW9       29.98F WCI  -2
MARINETTE      FLURRIES  14   4  64 N9G21     30.05F WCI   2
OCONTO         CLOUDY    14   5  66 N6        30.06S WCI   5
$$

WIZ017-030-035>037-045-121700-
CENTRAL WISCONSIN

CITY           SKY/WX    TMP DP  RH WIND       PRES   REMARKS
MEDFORD        MOSUNNY    6  -1  74 N13       30.05F WCI -11
WAUSAU         SUNNY     11   0  61 NW12      30.04F WCI  -3
MOSINEE        MOSUNNY   10   3  72 NW9       30.06F WCI  -2
MARSHFIELD     SUNNY      8   2  76 NW13      30.07F WCI  -8
WISC RAPIDS    MOSUNNY   11   2  67 NW13      30.11S WCI  -4
STEVENS POINT  PTSUNNY   11   2  67 NW8       30.07F WCI  -1
WAUPACA        PTSUNNY   17   5  57 W10       30.08F WCI   5
SHAWANO        CLOUDY    18   8  66 W6        30.05F WCI  10
CLINTONVILLE   NOT AVBL
WAUTOMA        FLURRIES  13   6  74 W13       30.10S WCI  -2
$$

WIZ038-039-048-051-121700-
FOX VALLEY

CITY           SKY/WX    TMP DP  RH WIND       PRES   REMARKS
NWS GREEN BAY  CLOUDY    17   7  64 NW14G21   30.06S WCI   3
APPLETON       CLOUDY    16   1  53 NW13G21   30.04S WCI   2
OSHKOSH        CLOUDY    17   6  62 NW13      30.06S WCI   4
FOND DU LAC    CLOUDY    17   3  54 NW16      30.07R WCI   2
$$

WIZ022-050-052-121700-
EAST CENTRAL WISCONSIN

CITY           SKY/WX    TMP DP  RH WIND       PRES   REMARKS
EPHRAIM        FAIR      14  -1  52 NW21G26   29.99F WCI  -4
WASHINGTON ISL PTSUNNY   15   3  60 N16G26    29.99S WCI  -1
STURGEON BAY   MOSUNNY   14   3  61 NW24G31   30.02F WCI  -5
MANITOWOC      FLURRIES  16   6  65 NW15G21   30.05S WCI   1
SHEBOYGAN      CLOUDY    17   6  62 NW15G23   30.05R WCI   2
$$

LMZ563-521-522-541>543-121700-
LAKESHORE

STATION/POSITION TIME  TEMP    WIND        PRES    VSBY  WAVE
                       AIR SEA DIR/SP/G                  HT/PER
                 (UTC) (F)     (DEG/KT/KT) (MB)    (MI)  (FT/S)
SHEBOYGAN LKSHOR 1600   17     330/ 18/ 23 1018.8R
KEWAUNEE LKSHORE 1548   15     330/ 12/ 20 1016.6R
NORTHPORT PIER   1534   17     320/ 26     1015.6F
MENOMINEE LKSHOR 1548   15     340/ 16/ 33 1017.1F
$$




USA.gov is the U.S. government's official web portal to all federal, state and local government web resources and services.